Tracking 29065 objects as of 22-Jul-2024
HD Live streaming from Space Station
objects crossing your sky now

COSMOS 1275 DEB

Track COSMOS 1275 DEB now!
10-day predictions


NORAD ID: 42175
Int'l Code: 1981-053SP
Perigee: 977.9 km
Apogee: 1,185.0 km
Inclination: 83.0 °
Period: 106.7 minutes
Semi major axis: 7452 km
RCS: Unknown
Launch date: June 4, 1981
Source: Commonwealth of Independent States (former USSR) (CIS)
Launch site: PLESETSK MISSILE AND SPACE COMPLEX (PKMTR)

Note: This is SATELLITE DEBRIS
Your satellite tracking list
Your tracking list is empty




NASA's NSSDC Master Catalog

Two Line Element Set (TLE):
1 42175U 81053SP  24191.12735088  .00000147  00000-0  19994-3 0  9994
2 42175  83.0314 321.2198 0138921 319.7497 216.7266 13.49442990523791
Source of the keplerian elements: AFSPC